TimeEDT,TemperatureF,Dew PointF,Humidity,Sea Level PressureIn,VisibilityMPH,Wind Direction,Wind SpeedMPH,Gust SpeedMPH,PrecipitationIn,Events,Conditions,WindDirDegrees,DateUTC
12:54 AM,80.1,71.1,74,30.12,10.0,WSW,12.7,-,N/A,,Partly Cloudy,250,2013-07-05 04:54:00
1:54 AM,79.0,71.1,77,30.12,10.0,WSW,11.5,-,N/A,,Partly Cloudy,240,2013-07-05 05:54:00
2:54 AM,79.0,71.1,77,30.12,10.0,WSW,12.7,-,N/A,,Clear,250,2013-07-05 06:54:00
3:54 AM,80.1,71.1,74,30.12,10.0,West,13.8,23.0,N/A,,Clear,260,2013-07-05 07:54:00
4:54 AM,79.0,71.1,77,30.13,10.0,West,12.7,-,N/A,,Clear,270,2013-07-05 08:54:00
5:54 AM,79.0,71.1,77,30.14,10.0,WSW,10.4,-,N/A,,Partly Cloudy,250,2013-07-05 09:54:00
6:54 AM,81.0,71.1,72,30.15,10.0,WSW,9.2,-,N/A,,Clear,250,2013-07-05 10:54:00
7:54 AM,82.9,71.1,67,30.15,10.0,West,9.2,-,N/A,,Clear,270,2013-07-05 11:54:00
8:54 AM,84.9,72.0,65,30.15,10.0,West,10.4,-,N/A,,Clear,270,2013-07-05 12:54:00
9:54 AM,88.0,72.0,59,30.14,10.0,WSW,6.9,-,N/A,,Partly Cloudy,250,2013-07-05 13:54:00
10:54 AM,90.0,72.0,55,30.13,10.0,West,6.9,-,N/A,,Scattered Clouds,260,2013-07-05 14:54:00
11:54 AM,90.0,72.0,55,30.12,10.0,SSW,6.9,-,N/A,,Partly Cloudy,200,2013-07-05 15:54:00
12:54 PM,93.0,69.1,45,30.11,10.0,SW,10.4,18.4,N/A,,Scattered Clouds,230,2013-07-05 16:54:00
1:54 PM,93.9,70.0,46,30.09,10.0,SW,13.8,21.9,N/A,,Scattered Clouds,220,2013-07-05 17:54:00
2:54 PM,93.9,68.0,43,30.08,10.0,SW,16.1,24.2,N/A,,Scattered Clouds,230,2013-07-05 18:54:00
3:54 PM,93.9,70.0,46,30.05,10.0,SW,16.1,-,N/A,,Scattered Clouds,220,2013-07-05 19:54:00
4:54 PM,93.0,70.0,47,30.04,10.0,SW,17.3,-,N/A,,Partly Cloudy,220,2013-07-05 20:54:00
5:54 PM,91.9,69.1,47,30.04,10.0,WSW,17.3,24.2,N/A,,Partly Cloudy,240,2013-07-05 21:54:00
6:54 PM,91.0,69.1,48,30.04,10.0,WSW,15.0,-,N/A,,Partly Cloudy,240,2013-07-05 22:54:00
7:54 PM,88.0,72.0,59,30.03,10.0,SW,17.3,-,N/A,,Scattered Clouds,230,2013-07-05 23:54:00
8:54 PM,84.9,72.0,65,30.04,10.0,SW,15.0,-,N/A,,Scattered Clouds,230,2013-07-06 00:54:00
9:54 PM,84.0,73.0,69,30.06,10.0,WSW,13.8,-,N/A,,Scattered Clouds,240,2013-07-06 01:54:00
10:54 PM,82.9,73.0,72,30.05,10.0,WSW,15.0,-,N/A,,Scattered Clouds,240,2013-07-06 02:54:00
11:54 PM,82.0,72.0,71,30.06,10.0,WSW,12.7,-,N/A,,Scattered Clouds,250,2013-07-06 03:54:00